Time,TemperatureF,DewpointF,PressureIn,WindDirection,WindDirectionDegrees,WindSpeedMPH,WindSpeedGustMPH,Humidity,HourlyPrecipIn,Conditions,Clouds,dailyrainin,SoftwareType,DateUTC
2013-01-28 00:12:00,32.3,30.0,30.51,WNW,288,0.0,0.0,89,0.01,,,0.00,weatherlink.com 1.10,2013-01-28 05:12:00,
2013-01-28 00:27:00,32.0,29.0,30.52,WNW,288,0.0,0.0,89,0.01,,,0.00,weatherlink.com 1.10,2013-01-28 05:27:00,
2013-01-28 00:42:00,31.8,30.0,30.51,WNW,288,0.0,0.0,91,0.00,,,0.00,weatherlink.com 1.10,2013-01-28 05:42:00,
2013-01-28 00:57:00,31.9,30.0,30.51,WNW,288,0.0,0.0,92,0.00,,,0.00,weatherlink.com 1.10,2013-01-28 05:57:00,
2013-01-28 01:12:00,32.0,30.0,30.51,WNW,288,0.0,0.0,92,0.00,,,0.00,weatherlink.com 1.10,2013-01-28 06:12:00,
2013-01-28 01:27:00,32.1,30.0,30.51,WNW,288,0.0,0.0,92,0.00,,,0.00,weatherlink.com 1.10,2013-01-28 06:27:00,
2013-01-28 01:42:00,32.3,31.0,30.51,WNW,288,0.0,1.0,93,0.00,,,0.00,weatherlink.com 1.10,2013-01-28 06:42:00,
2013-01-28 01:57:00,32.3,30.0,30.51,WNW,288,0.0,1.0,92,0.00,,,0.00,weatherlink.com 1.10,2013-01-28 06:57:00,
2013-01-28 02:12:00,32.4,30.0,30.51,WNW,288,0.0,0.0,92,0.00,,,0.00,weatherlink.com 1.10,2013-01-28 07:12:00,
2013-01-28 02:27:00,32.4,30.0,30.50,WNW,288,0.0,0.0,92,0.00,,,0.00,weatherlink.com 1.10,2013-01-28 07:27:00,
2013-01-28 02:42:00,32.5,31.0,30.50,WNW,288,0.0,0.0,92,0.00,,,0.00,weatherlink.com 1.10,2013-01-28 07:42:00,
2013-01-28 02:57:00,32.5,31.0,30.49,WNW,288,0.0,0.0,92,0.01,,,0.01,weatherlink.com 1.10,2013-01-28 07:57:00,
2013-01-28 03:12:00,32.4,30.0,30.51,WNW,288,0.0,1.0,92,0.02,,,0.02,weatherlink.com 1.10,2013-01-28 08:12:00,
2013-01-28 03:27:00,32.3,30.0,30.49,North,356,0.0,0.0,92,0.04,,,0.04,weatherlink.com 1.10,2013-01-28 08:27:00,
2013-01-28 03:42:00,32.4,31.0,30.50,North,357,0.0,0.0,93,0.04,,,0.04,weatherlink.com 1.10,2013-01-28 08:42:00,
2013-01-28 03:57:00,32.4,31.0,30.49,North,356,0.0,0.0,94,0.03,,,0.04,weatherlink.com 1.10,2013-01-28 08:57:00,
2013-01-28 04:12:00,32.5,31.0,30.49,North,357,0.0,0.0,94,0.02,,,0.04,weatherlink.com 1.10,2013-01-28 09:12:00,
2013-01-28 04:27:00,32.4,31.0,30.49,North,357,0.0,0.0,94,0.00,,,0.04,weatherlink.com 1.10,2013-01-28 09:27:00,
2013-01-28 04:42:00,32.3,31.0,30.48,North,356,0.0,0.0,94,0.00,,,0.04,weatherlink.com 1.10,2013-01-28 09:42:00,
2013-01-28 04:57:00,32.1,31.0,30.48,North,357,0.0,0.0,94,0.00,,,0.04,weatherlink.com 1.10,2013-01-28 09:57:00,
2013-01-28 05:12:00,31.8,30.0,30.49,North,356,0.0,0.0,94,0.00,,,0.04,weatherlink.com 1.10,2013-01-28 10:12:00,
2013-01-28 05:27:00,31.9,30.0,30.48,North,357,0.0,1.0,94,0.00,,,0.04,weatherlink.com 1.10,2013-01-28 10:27:00,
2013-01-28 05:42:00,32.0,31.0,30.48,North,356,0.0,0.0,94,0.00,,,0.04,weatherlink.com 1.10,2013-01-28 10:42:00,
2013-01-28 05:57:00,32.1,31.0,30.48,North,357,0.0,0.0,95,0.00,,,0.04,weatherlink.com 1.10,2013-01-28 10:57:00,
2013-01-28 06:12:00,32.3,31.0,30.49,North,356,0.0,1.0,95,0.00,,,0.04,weatherlink.com 1.10,2013-01-28 11:12:00,
2013-01-28 06:27:00,32.3,31.0,30.50,North,356,0.0,0.0,95,0.00,,,0.04,weatherlink.com 1.10,2013-01-28 11:27:00,
2013-01-28 06:42:00,32.3,31.0,30.49,North,356,0.0,0.0,95,0.00,,,0.04,weatherlink.com 1.10,2013-01-28 11:42:00,
2013-01-28 06:57:00,32.3,31.0,30.49,North,356,0.0,0.0,95,0.00,,,0.04,weatherlink.com 1.10,2013-01-28 11:57:00,
2013-01-28 07:12:00,31.9,31.0,30.49,North,356,0.0,0.0,95,0.00,,,0.04,weatherlink.com 1.10,2013-01-28 12:12:00,
2013-01-28 07:27:00,31.5,30.0,30.50,North,356,0.0,0.0,94,0.00,,,0.04,weatherlink.com 1.10,2013-01-28 12:27:00,
2013-01-28 07:42:00,31.2,30.0,30.50,North,356,0.0,0.0,95,0.00,,,0.04,weatherlink.com 1.10,2013-01-28 12:42:00,
2013-01-28 07:57:00,31.0,30.0,30.49,North,356,0.0,0.0,95,0.00,,,0.04,weatherlink.com 1.10,2013-01-28 12:57:00,
2013-01-28 08:12:00,31.3,30.0,30.49,North,357,0.0,0.0,95,0.00,,,0.04,weatherlink.com 1.10,2013-01-28 13:12:00,
2013-01-28 08:27:00,32.1,31.0,30.48,North,359,0.0,1.0,96,0.00,,,0.04,weatherlink.com 1.10,2013-01-28 13:27:00,
2013-01-28 08:43:00,32.5,31.0,30.48,North,360,0.0,0.0,95,0.00,,,0.04,weatherlink.com 1.10,2013-01-28 13:43:00,
2013-01-28 08:58:00,32.9,32.0,30.48,North,359,0.0,0.0,96,0.00,,,0.04,weatherlink.com 1.10,2013-01-28 13:58:00,
2013-01-28 09:13:00,33.5,33.0,30.47,North,358,0.0,1.0,96,0.00,,,0.04,weatherlink.com 1.10,2013-01-28 14:13:00,
2013-01-28 09:28:00,33.8,33.0,30.48,SSE,155,0.0,1.0,95,0.00,,,0.04,weatherlink.com 1.10,2013-01-28 14:28:00,
2013-01-28 09:43:00,33.6,32.0,30.48,South,187,0.0,1.0,94,0.00,,,0.04,weatherlink.com 1.10,2013-01-28 14:43:00,
2013-01-28 09:58:00,34.5,33.0,30.47,South,172,0.0,1.0,95,0.00,,,0.04,weatherlink.com 1.10,2013-01-28 14:58:00,
2013-01-28 10:13:00,36.3,34.0,30.47,WNW,295,1.0,3.0,91,0.00,,,0.04,weatherlink.com 1.10,2013-01-28 15:13:00,
2013-01-28 10:28:00,37.7,33.0,30.47,WSW,246,1.0,5.0,84,0.00,,,0.04,weatherlink.com 1.10,2013-01-28 15:28:00,
2013-01-28 10:43:00,39.2,34.0,30.47,SW,221,0.0,4.0,82,0.00,,,0.04,weatherlink.com 1.10,2013-01-28 15:43:00,
2013-01-28 10:58:00,40.2,35.0,30.46,WNW,295,2.0,5.0,80,0.00,,,0.04,weatherlink.com 1.10,2013-01-28 15:58:00,
2013-01-28 11:13:00,41.5,35.0,30.46,WSW,237,1.0,3.0,79,0.01,,,0.05,weatherlink.com 1.10,2013-01-28 16:13:00,
2013-01-28 11:28:00,42.9,36.0,30.45,SSW,212,1.0,4.0,76,0.01,,,0.05,weatherlink.com 1.10,2013-01-28 16:28:00,
2013-01-28 11:43:00,44.3,37.0,30.44,SW,231,0.0,4.0,74,0.01,,,0.05,weatherlink.com 1.10,2013-01-28 16:43:00,
2013-01-28 11:58:00,46.1,38.0,30.43,SSW,195,1.0,5.0,73,0.01,,,0.05,weatherlink.com 1.10,2013-01-28 16:58:00,
2013-01-28 12:13:00,46.4,38.0,30.41,SSE,149,2.0,4.0,72,0.00,,,0.05,weatherlink.com 1.10,2013-01-28 17:13:00,
2013-01-28 12:28:00,47.7,39.0,30.40,SW,231,1.0,4.0,72,0.00,,,0.05,weatherlink.com 1.10,2013-01-28 17:28:00,
2013-01-28 12:43:00,48.9,39.0,30.38,SSE,166,2.0,7.0,69,0.00,,,0.05,weatherlink.com 1.10,2013-01-28 17:43:00,
2013-01-28 12:58:00,49.6,40.0,30.36,SE,141,4.0,7.0,70,0.00,,,0.05,weatherlink.com 1.10,2013-01-28 17:58:00,
2013-01-28 13:14:00,50.9,41.0,30.36,South,169,4.0,7.0,69,0.00,,,0.05,weatherlink.com 1.10,2013-01-28 18:14:00,
2013-01-28 13:29:00,51.6,42.0,30.35,South,170,3.0,5.0,70,0.00,,,0.05,weatherlink.com 1.10,2013-01-28 18:29:00,
2013-01-28 13:44:00,51.6,42.0,30.34,SW,218,2.0,7.0,70,0.00,,,0.05,weatherlink.com 1.10,2013-01-28 18:44:00,
2013-01-28 13:59:00,52.1,44.0,30.32,SW,225,4.0,9.0,73,0.00,,,0.05,weatherlink.com 1.10,2013-01-28 18:59:00,
2013-01-28 14:14:00,53.7,44.0,30.31,South,188,5.0,7.0,71,0.00,,,0.05,weatherlink.com 1.10,2013-01-28 19:14:00,
2013-01-28 14:29:00,54.0,45.0,30.31,SSE,159,3.0,8.0,71,0.00,,,0.05,weatherlink.com 1.10,2013-01-28 19:29:00,
2013-01-28 14:44:00,53.9,45.0,30.30,WSW,245,1.0,9.0,71,0.00,,,0.05,weatherlink.com 1.10,2013-01-28 19:44:00,
2013-01-28 14:59:00,54.1,45.0,30.30,South,181,4.0,9.0,71,0.00,,,0.05,weatherlink.com 1.10,2013-01-28 19:59:00,
2013-01-28 15:14:00,54.6,45.0,30.29,SSW,207,2.0,6.0,69,0.00,,,0.05,weatherlink.com 1.10,2013-01-28 20:14:00,
2013-01-28 15:29:00,55.0,45.0,30.29,SSW,207,3.0,8.0,69,0.00,,,0.05,weatherlink.com 1.10,2013-01-28 20:29:00,
2013-01-28 15:44:00,55.1,45.0,30.28,SE,136,1.0,7.0,68,0.00,,,0.05,weatherlink.com 1.10,2013-01-28 20:44:00,
2013-01-28 15:59:00,54.9,44.0,30.29,SSW,195,3.0,6.0,68,0.00,,,0.05,weatherlink.com 1.10,2013-01-28 20:59:00,
2013-01-28 16:14:00,54.9,45.0,30.28,SSW,195,1.0,8.0,69,0.00,,,0.05,weatherlink.com 1.10,2013-01-28 21:14:00,
2013-01-28 16:29:00,55.2,45.0,30.28,SSE,158,1.0,6.0,68,0.00,,,0.05,weatherlink.com 1.10,2013-01-28 21:29:00,
2013-01-28 16:44:00,55.2,45.0,30.28,SW,229,1.0,5.0,68,0.00,,,0.05,weatherlink.com 1.10,2013-01-28 21:44:00,
2013-01-28 16:59:00,55.1,44.0,30.28,SSW,193,1.0,5.0,67,0.00,,,0.05,weatherlink.com 1.10,2013-01-28 21:59:00,
2013-01-28 17:14:00,54.0,44.0,30.29,SSE,155,1.0,4.0,68,0.00,,,0.05,weatherlink.com 1.10,2013-01-28 22:14:00,
2013-01-28 17:29:00,52.9,43.0,30.29,ESE,121,1.0,2.0,70,0.00,,,0.05,weatherlink.com 1.10,2013-01-28 22:29:00,
2013-01-28 17:44:00,51.3,43.0,30.29,SE,144,0.0,2.0,73,0.00,,,0.05,weatherlink.com 1.10,2013-01-28 22:44:00,
2013-01-28 17:59:00,49.5,43.0,30.30,SE,143,0.0,1.0,77,0.00,,,0.05,weatherlink.com 1.10,2013-01-28 22:59:00,
2013-01-28 18:14:00,47.5,42.0,30.30,SE,143,0.0,1.0,81,0.00,,,0.05,weatherlink.com 1.10,2013-01-28 23:14:00,
2013-01-28 18:29:00,46.4,42.0,30.30,SE,143,0.0,1.0,83,0.00,,,0.05,weatherlink.com 1.10,2013-01-28 23:29:00,
2013-01-28 18:44:00,45.8,42.0,30.31,SE,143,0.0,0.0,85,0.00,,,0.05,weatherlink.com 1.10,2013-01-28 23:44:00,
2013-01-28 18:59:00,45.6,41.0,30.30,SE,143,0.0,1.0,85,0.00,,,0.05,weatherlink.com 1.10,2013-01-28 23:59:00,
2013-01-28 19:14:00,45.2,41.0,30.30,SE,144,0.0,1.0,86,0.00,,,0.05,weatherlink.com 1.10,2013-01-29 00:14:00,
2013-01-28 19:29:00,44.2,41.0,30.30,SE,143,0.0,0.0,87,0.00,,,0.05,weatherlink.com 1.10,2013-01-29 00:29:00,
2013-01-28 19:44:00,43.9,41.0,30.30,SE,143,0.0,0.0,89,0.00,,,0.05,weatherlink.com 1.10,2013-01-29 00:44:00,
2013-01-28 19:59:00,43.2,40.0,30.30,SE,143,0.0,0.0,89,0.00,,,0.05,weatherlink.com 1.10,2013-01-29 00:59:00,
2013-01-28 20:14:00,42.3,40.0,30.30,SE,143,0.0,0.0,91,0.00,,,0.05,weatherlink.com 1.10,2013-01-29 01:14:00,
2013-01-28 20:29:00,42.2,40.0,30.30,SE,144,0.0,0.0,90,0.00,,,0.05,weatherlink.com 1.10,2013-01-29 01:29:00,
2013-01-28 20:44:00,41.9,40.0,30.29,SE,143,0.0,1.0,92,0.00,,,0.05,weatherlink.com 1.10,2013-01-29 01:44:00,
2013-01-28 20:59:00,41.0,39.0,30.29,SE,144,0.0,0.0,91,0.00,,,0.05,weatherlink.com 1.10,2013-01-29 01:59:00,
2013-01-28 21:14:00,40.8,39.0,30.30,SE,143,0.0,0.0,93,0.00,,,0.05,weatherlink.com 1.10,2013-01-29 02:14:00,
2013-01-28 21:29:00,40.4,39.0,30.29,SE,143,0.0,0.0,93,0.00,,,0.05,weatherlink.com 1.10,2013-01-29 02:29:00,
2013-01-28 21:44:00,40.1,39.0,30.28,SE,143,0.0,0.0,94,0.00,,,0.05,weatherlink.com 1.10,2013-01-29 02:44:00,
2013-01-28 21:59:00,39.5,38.0,30.28,SE,143,0.0,1.0,94,0.00,,,0.05,weatherlink.com 1.10,2013-01-29 02:59:00,
2013-01-28 22:14:00,39.1,38.0,30.27,SE,144,0.0,0.0,94,0.00,,,0.05,weatherlink.com 1.10,2013-01-29 03:14:00,
2013-01-28 22:29:00,38.9,37.0,30.27,SE,143,2.0,2.0,94,0.00,,,0.05,weatherlink.com 1.10,2013-01-29 03:29:00,
2013-01-28 22:45:00,39.4,38.0,30.27,SE,142,0.0,1.0,95,0.00,,,0.05,weatherlink.com 1.10,2013-01-29 03:45:00,
2013-01-28 23:00:00,38.4,37.0,30.26,SE,134,1.0,1.0,94,0.00,,,0.05,weatherlink.com 1.10,2013-01-29 04:00:00,
2013-01-28 23:15:00,38.0,37.0,30.27,South,179,0.0,1.0,94,0.00,,,0.05,weatherlink.com 1.10,2013-01-29 04:15:00,
2013-01-28 23:30:00,38.5,38.0,30.27,South,179,0.0,1.0,96,0.00,,,0.05,weatherlink.com 1.10,2013-01-29 04:30:00,
2013-01-28 23:45:00,38.3,37.0,30.27,South,179,0.0,0.0,95,0.00,,,0.05,weatherlink.com 1.10,2013-01-29 04:45:00,